UAL43 EDDF-KEWR

Flight info

Callsign UAL43
Flight time N/A
Altitude 34000
Route OBOKA2E OBOKA Z29 TORNU DCT GALSO Q63 KOPUL Q60 OKSAW DCT FELCA DCT OFSOX/N0472F360 DCT SLANY DCT TOBOR/M082F360 NATE PELTU/N0471F380 DCT TAFFY DCT KJOHN DCT HANAA FLOSI4
Aircraft B77W/H-SDE1E2E3FGHIJ2J3J4J5M1RWXY/LB1D1

Departure

Time N/A
Airport Frankfurt Main Airport (EDDF)

Arrival

Time 2026-04-26 17:25
Airport Newark Liberty International Airport (KEWR)
Time Latitude Longitude Altitude Speed Heading
2026-04-26 14:19 53.76741 -48.02852 37498 ft 518 kts 259°
2026-04-26 14:20 53.75229 -48.14739 37507 ft 517 kts 259°
2026-04-26 14:20 53.73708 -48.26600 37515 ft 520 kts 259°
2026-04-26 14:21 53.72167 -48.38514 37511 ft 519 kts 259°
2026-04-26 14:21 53.70610 -48.50452 37524 ft 521 kts 259°
2026-04-26 14:22 53.69049 -48.62317 37519 ft 517 kts 259°
2026-04-26 14:22 53.67472 -48.74219 37537 ft 521 kts 259°
2026-04-26 14:23 53.65881 -48.86118 37543 ft 520 kts 259°
2026-04-26 14:23 53.64277 -48.98022 37544 ft 521 kts 259°
2026-04-26 14:24 53.62658 -49.09932 37553 ft 521 kts 259°
2026-04-26 14:24 53.61037 -49.21770 37552 ft 522 kts 259°
2026-04-26 14:25 53.59397 -49.33642 37563 ft 519 kts 259°
2026-04-26 14:25 53.57746 -49.45514 37578 ft 523 kts 259°
2026-04-26 14:26 53.56076 -49.57429 37575 ft 521 kts 259°
2026-04-26 14:26 53.54402 -49.69265 37582 ft 520 kts 259°
2026-04-26 14:27 53.52713 -49.81133 37595 ft 524 kts 259°
2026-04-26 14:27 53.51007 -49.93031 37586 ft 522 kts 258°
2026-04-26 14:28 53.48968 -50.04757 37603 ft 526 kts 250°
2026-04-26 14:28 53.46191 -50.16141 37608 ft 527 kts 249°
2026-04-26 14:29 53.43349 -50.27482 37608 ft 526 kts 249°
2026-04-26 14:29 53.40558 -50.38739 37630 ft 528 kts 249°
2026-04-26 14:30 53.37760 -50.50101 37625 ft 526 kts 249°
2026-04-26 14:30 53.34961 -50.61444 37635 ft 527 kts 249°
2026-04-26 14:31 53.32154 -50.72745 37633 ft 524 kts 249°
2026-04-26 14:31 53.29352 -50.83956 37637 ft 519 kts 249°
2026-04-26 14:32 53.26563 -50.95056 37648 ft 516 kts 249°
2026-04-26 14:32 53.23798 -51.06014 37653 ft 514 kts 249°
2026-04-26 14:33 53.21009 -51.17012 37667 ft 514 kts 249°
2026-04-26 14:33 53.18207 -51.28009 37670 ft 516 kts 249°
2026-04-26 14:34 53.15384 -51.39033 37674 ft 518 kts 249°
2026-04-26 14:34 53.12538 -51.50088 37676 ft 520 kts 249°
2026-04-26 14:35 53.09675 -51.61157 37689 ft 522 kts 249°
2026-04-26 14:35 53.06788 -51.72260 37687 ft 523 kts 249°
2026-04-26 14:36 53.03908 -51.83283 37692 ft 523 kts 249°
2026-04-26 14:36 53.00999 -51.94365 37705 ft 523 kts 248°
2026-04-26 14:37 52.98080 -52.05428 37707 ft 522 kts 248°
2026-04-26 14:37 52.95158 -52.16450 37716 ft 522 kts 248°
2026-04-26 14:38 52.92229 -52.27445 37721 ft 521 kts 248°
2026-04-26 14:38 52.89290 -52.38424 37730 ft 521 kts 248°
2026-04-26 14:39 52.86346 -52.49374 37736 ft 521 kts 248°
2026-04-26 14:39 52.83410 -52.60243 37741 ft 520 kts 248°
2026-04-26 14:40 52.80447 -52.71155 37751 ft 520 kts 248°
2026-04-26 14:40 52.77473 -52.82060 37753 ft 520 kts 248°
2026-04-26 14:41 52.74487 -52.92953 37764 ft 521 kts 248°
2026-04-26 14:41 52.71487 -53.03848 37765 ft 521 kts 248°
2026-04-26 14:42 52.68478 -53.14723 37776 ft 521 kts 248°
2026-04-26 14:42 52.65456 -53.25596 37781 ft 521 kts 248°
2026-04-26 14:43 52.62938 -53.34617 37789 ft 521 kts 248°
2026-04-26 14:43 52.59402 -53.47225 37789 ft 522 kts 248°
2026-04-26 14:44 52.56846 -53.56298 37808 ft 522 kts 247°
2026-04-26 14:44 52.53783 -53.67121 37815 ft 522 kts 247°
2026-04-26 14:45 52.50734 -53.77850 37815 ft 522 kts 247°
2026-04-26 14:45 52.47650 -53.88650 37823 ft 522 kts 247°
2026-04-26 14:46 52.44560 -53.99420 37832 ft 522 kts 247°
2026-04-26 14:46 52.41460 -54.10178 37837 ft 522 kts 247°
2026-04-26 14:47 52.38345 -54.20940 37839 ft 522 kts 247°
2026-04-26 14:47 52.35221 -54.31681 37852 ft 523 kts 247°
2026-04-26 14:48 52.32082 -54.42426 37861 ft 523 kts 247°
2026-04-26 14:48 52.28939 -54.53138 37863 ft 523 kts 247°
2026-04-26 14:49 52.25804 -54.63774 37876 ft 523 kts 246°
2026-04-26 14:49 52.22637 -54.74471 37876 ft 523 kts 246°
2026-04-26 14:50 52.19454 -54.85174 37889 ft 524 kts 246°
2026-04-26 14:50 52.16262 -54.95861 37884 ft 524 kts 246°
2026-04-26 14:51 52.13062 -55.06530 37894 ft 524 kts 246°
2026-04-26 14:51 52.09847 -55.17204 37902 ft 525 kts 246°
2026-04-26 14:52 52.06625 -55.27790 37903 ft 526 kts 246°
2026-04-26 14:52 52.03358 -55.38439 37910 ft 526 kts 246°
2026-04-26 14:53 52.00087 -55.49065 37912 ft 527 kts 246°
2026-04-26 14:53 51.96806 -55.59689 37923 ft 527 kts 246°
2026-04-26 14:54 51.93513 -55.70306 37928 ft 528 kts 246°
2026-04-26 14:54 51.90206 -55.80928 37937 ft 528 kts 246°
2026-04-26 14:55 51.86881 -55.91554 37934 ft 529 kts 246°
2026-04-26 14:55 51.83564 -56.02112 37939 ft 530 kts 246°
2026-04-26 14:56 51.80208 -56.12749 37940 ft 531 kts 245°
2026-04-26 14:56 51.76839 -56.23378 37944 ft 532 kts 245°
2026-04-26 14:57 51.73456 -56.34005 37946 ft 533 kts 245°
2026-04-26 14:57 51.70054 -56.44647 37947 ft 533 kts 245°
2026-04-26 14:58 51.66645 -56.55263 37947 ft 534 kts 245°
2026-04-26 14:58 51.63220 -56.65884 37952 ft 534 kts 245°
2026-04-26 14:59 51.59802 -56.76438 37964 ft 534 kts 245°
2026-04-26 14:59 51.56359 -56.87025 37950 ft 534 kts 245°
2026-04-26 15:00 51.52907 -56.97593 37955 ft 534 kts 244°
2026-04-26 15:00 51.49442 -57.08156 37964 ft 534 kts 244°
2026-04-26 15:01 51.45975 -57.18681 37961 ft 534 kts 244°
2026-04-26 15:01 51.42497 -57.29192 37954 ft 533 kts 244°
2026-04-26 15:02 51.39018 -57.39665 37962 ft 532 kts 244°
2026-04-26 15:02 51.35533 -57.50112 37973 ft 532 kts 244°
2026-04-26 15:03 51.32039 -57.60540 37986 ft 531 kts 243°
2026-04-26 15:03 51.28540 -57.70940 38007 ft 530 kts 243°
2026-04-26 15:04 51.25045 -57.81286 38018 ft 529 kts 243°
2026-04-26 15:04 51.21541 -57.91616 38033 ft 528 kts 243°
2026-04-26 15:05 51.18057 -58.01844 38028 ft 527 kts 243°
2026-04-26 15:05 51.14550 -58.12100 38032 ft 527 kts 243°
2026-04-26 15:06 51.11034 -58.22340 38034 ft 526 kts 243°
2026-04-26 15:06 51.07520 -58.32532 38041 ft 526 kts 243°
2026-04-26 15:07 51.02223 -58.47818 38043 ft 526 kts 243°
2026-04-26 15:07 50.98682 -58.57984 38045 ft 526 kts 243°
2026-04-26 15:08 50.95132 -58.68138 38047 ft 526 kts 243°
2026-04-26 15:08 50.91592 -58.78220 38050 ft 527 kts 243°
2026-04-26 15:09 50.88016 -58.88367 38048 ft 527 kts 243°
2026-04-26 15:09 50.84431 -58.98498 38044 ft 527 kts 243°
2026-04-26 15:10 50.81445 -59.06906 38054 ft 527 kts 242°
2026-04-26 15:10 50.77238 -59.18704 38054 ft 527 kts 242°
2026-04-26 15:11 50.73628 -59.28782 38053 ft 527 kts 242°
2026-04-26 15:11 50.70015 -59.38831 38051 ft 526 kts 242°
2026-04-26 15:12 50.66418 -59.48798 38060 ft 525 kts 242°
2026-04-26 15:12 50.62796 -59.58793 38052 ft 524 kts 242°
2026-04-26 15:13 50.59172 -59.68754 38044 ft 524 kts 242°
2026-04-26 15:13 50.55546 -59.78684 38071 ft 523 kts 242°
2026-04-26 15:14 50.51916 -59.88587 38064 ft 522 kts 242°
2026-04-26 15:14 50.48282 -59.98461 38067 ft 521 kts 242°
2026-04-26 15:15 50.44667 -60.08245 38078 ft 520 kts 242°
2026-04-26 15:15 50.41032 -60.18050 38075 ft 519 kts 241°
2026-04-26 15:16 50.37394 -60.27822 38082 ft 519 kts 241°
2026-04-26 15:16 50.33752 -60.37571 38086 ft 518 kts 241°
2026-04-26 15:17 50.30721 -60.45652 38093 ft 517 kts 241°
2026-04-26 15:17 50.26453 -60.56994 38099 ft 517 kts 241°
2026-04-26 15:18 50.22792 -60.66684 38098 ft 517 kts 241°
2026-04-26 15:18 50.19130 -60.76340 38103 ft 517 kts 240°
2026-04-26 15:19 50.15483 -60.85920 38112 ft 516 kts 240°
2026-04-26 15:19 50.11807 -60.95541 38115 ft 516 kts 240°
2026-04-26 15:20 50.08130 -61.05128 38116 ft 515 kts 240°
2026-04-26 15:20 50.04443 -61.14707 38123 ft 515 kts 240°
2026-04-26 15:21 50.00781 -61.24185 38121 ft 514 kts 240°
2026-04-26 15:21 49.97096 -61.33690 38129 ft 513 kts 240°
2026-04-26 15:22 49.93405 -61.43175 38133 ft 513 kts 240°
2026-04-26 15:22 49.89710 -61.52635 38137 ft 512 kts 240°
2026-04-26 15:23 49.86008 -61.62080 38141 ft 512 kts 240°
2026-04-26 15:23 49.82303 -61.71497 38140 ft 511 kts 239°
2026-04-26 15:24 49.78595 -61.80891 38144 ft 511 kts 239°
2026-04-26 15:24 49.74879 -61.90270 38154 ft 511 kts 239°
2026-04-26 15:25 49.71784 -61.98055 38148 ft 511 kts 239°
2026-04-26 15:25 49.67450 -62.08920 38157 ft 511 kts 239°
2026-04-26 15:26 49.63709 -62.18261 38159 ft 512 kts 239°
2026-04-26 15:26 49.59956 -62.27599 38160 ft 513 kts 239°
2026-04-26 15:27 49.56188 -62.36943 38167 ft 513 kts 239°
2026-04-26 15:27 49.52430 -62.46228 38161 ft 514 kts 239°
2026-04-26 15:28 49.48630 -62.55584 38167 ft 516 kts 238°
2026-04-26 15:28 49.44813 -62.64949 38166 ft 517 kts 238°
2026-04-26 15:29 49.40974 -62.74335 38165 ft 519 kts 238°
2026-04-26 15:30 49.33261 -62.93090 38164 ft 522 kts 238°
2026-04-26 15:30 49.29376 -63.02489 38167 ft 522 kts 238°
2026-04-26 15:31 49.24171 -63.15028 38164 ft 521 kts 238°
2026-04-26 15:32 49.18997 -63.27433 38167 ft 518 kts 238°
2026-04-26 15:32 49.14496 -63.38178 38164 ft 514 kts 238°
2026-04-26 15:33 49.10636 -63.47358 38163 ft 511 kts 238°
2026-04-26 15:33 49.06801 -63.56447 38171 ft 508 kts 238°
2026-04-26 15:34 49.02976 -63.65484 38174 ft 506 kts 238°
2026-04-26 15:34 48.99185 -63.74409 38173 ft 504 kts 238°
2026-04-26 15:35 48.95378 -63.83343 38173 ft 503 kts 237°
2026-04-26 15:35 48.91569 -63.92251 38187 ft 502 kts 237°
2026-04-26 15:36 48.87750 -64.01152 38182 ft 502 kts 237°
2026-04-26 15:36 48.83925 -64.10038 38183 ft 502 kts 237°
2026-04-26 15:37 48.80093 -64.18912 38169 ft 503 kts 237°
2026-04-26 15:37 48.76244 -64.27795 38173 ft 503 kts 237°
2026-04-26 15:38 48.72383 -64.36675 38172 ft 504 kts 237°
2026-04-26 15:38 48.68538 -64.45491 38169 ft 505 kts 237°
2026-04-26 15:39 48.64660 -64.54352 38158 ft 505 kts 237°
2026-04-26 15:39 48.61428 -64.61717 38165 ft 505 kts 237°
2026-04-26 15:40 48.56878 -64.72049 38167 ft 505 kts 236°
2026-04-26 15:40 48.52986 -64.80856 38160 ft 504 kts 236°
2026-04-26 15:41 48.49086 -64.89652 38160 ft 504 kts 236°
2026-04-26 15:41 48.45213 -64.98357 38162 ft 502 kts 236°
2026-04-26 15:42 48.41315 -65.07092 38163 ft 502 kts 236°
2026-04-26 15:42 48.37415 -65.15805 38165 ft 501 kts 236°
2026-04-26 15:43 48.33514 -65.24493 38152 ft 501 kts 236°
2026-04-26 15:44 48.27653 -65.37486 38150 ft 500 kts 236°
2026-04-26 15:44 48.21819 -65.50362 38157 ft 499 kts 236°
2026-04-26 15:45 48.15959 -65.63234 38168 ft 498 kts 236°
2026-04-26 15:46 48.10089 -65.76071 38174 ft 498 kts 236°
2026-04-26 15:46 48.06832 -65.83164 38177 ft 498 kts 236°
2026-04-26 15:47 48.00272 -65.97397 38186 ft 499 kts 235°
2026-04-26 15:48 47.96326 -66.05923 38184 ft 500 kts 235°
2026-04-26 15:48 47.92364 -66.14457 38182 ft 501 kts 235°
2026-04-26 15:49 47.88385 -66.23003 38172 ft 502 kts 235°
2026-04-26 15:49 47.84413 -66.31505 38175 ft 503 kts 235°
2026-04-26 15:50 47.80408 -66.40050 38171 ft 504 kts 235°
2026-04-26 15:50 47.76394 -66.48589 38174 ft 504 kts 235°
2026-04-26 15:51 47.72373 -66.57116 38173 ft 502 kts 235°
2026-04-26 15:51 47.68376 -66.65566 38168 ft 499 kts 235°
2026-04-26 15:52 47.64400 -66.73946 38168 ft 495 kts 234°
2026-04-26 15:52 47.60459 -66.82226 38175 ft 492 kts 234°
2026-04-26 15:53 47.56517 -66.90483 38172 ft 490 kts 234°
2026-04-26 15:53 47.52580 -66.98707 38172 ft 489 kts 235°
2026-04-26 15:54 47.48640 -67.06913 38173 ft 488 kts 235°
2026-04-26 15:54 47.44700 -67.15094 38176 ft 489 kts 235°
2026-04-26 15:55 47.40751 -67.23274 38180 ft 490 kts 235°
2026-04-26 15:55 47.36697 -67.31367 38180 ft 490 kts 230°
2026-04-26 15:56 47.32014 -67.38679 38189 ft 491 kts 226°
2026-04-26 15:56 47.27249 -67.45818 38196 ft 491 kts 226°
2026-04-26 15:57 47.22467 -67.53016 38178 ft 492 kts 226°
2026-04-26 15:57 47.17706 -67.60219 38191 ft 491 kts 226°
2026-04-26 15:58 47.12955 -67.67410 38192 ft 490 kts 226°
2026-04-26 15:58 47.08211 -67.74573 38181 ft 488 kts 226°
2026-04-26 15:59 47.03479 -67.81694 38180 ft 487 kts 226°
2026-04-26 15:59 46.98756 -67.88777 38184 ft 485 kts 226°
2026-04-26 16:00 46.94051 -67.95820 38184 ft 483 kts 226°
2026-04-26 16:00 46.89346 -68.02843 38186 ft 482 kts 226°
2026-04-26 16:01 46.84682 -68.09785 38166 ft 482 kts 227°
2026-04-26 16:01 46.79979 -68.16768 38186 ft 482 kts 227°
2026-04-26 16:02 46.75265 -68.23745 38221 ft 483 kts 227°
2026-04-26 16:02 46.70535 -68.30731 38211 ft 484 kts 227°
2026-04-26 16:03 46.65800 -68.37705 38212 ft 484 kts 227°
2026-04-26 16:03 46.61054 -68.44678 38200 ft 485 kts 227°
2026-04-26 16:04 46.56303 -68.51638 38196 ft 484 kts 227°
2026-04-26 16:04 46.51556 -68.58573 38204 ft 484 kts 227°
2026-04-26 16:05 46.46832 -68.65458 38205 ft 484 kts 227°
2026-04-26 16:05 46.42078 -68.72369 38193 ft 484 kts 227°
2026-04-26 16:06 46.37320 -68.79266 38200 ft 484 kts 227°
2026-04-26 16:06 46.32557 -68.86154 38204 ft 484 kts 227°
2026-04-26 16:07 46.27790 -68.93027 38219 ft 484 kts 227°
2026-04-26 16:07 46.23015 -68.99897 38198 ft 484 kts 227°
2026-04-26 16:08 46.18239 -69.06749 38195 ft 484 kts 227°
2026-04-26 16:08 46.13458 -69.13590 38216 ft 484 kts 227°
2026-04-26 16:09 46.08669 -69.20427 38199 ft 484 kts 226°
2026-04-26 16:09 46.03889 -69.27232 38197 ft 483 kts 226°
2026-04-26 16:10 45.99109 -69.34018 38191 ft 483 kts 226°
2026-04-26 16:10 45.94328 -69.40790 38190 ft 482 kts 226°
2026-04-26 16:11 45.89544 -69.47548 38206 ft 481 kts 226°
2026-04-26 16:11 45.84801 -69.54231 38206 ft 481 kts 226°
2026-04-26 16:12 45.80022 -69.60948 38180 ft 481 kts 226°
2026-04-26 16:12 45.72842 -69.71009 38205 ft 481 kts 226°
2026-04-26 16:13 45.68051 -69.77700 38195 ft 481 kts 226°
2026-04-26 16:13 45.63261 -69.84374 38193 ft 481 kts 226°
2026-04-26 16:14 45.58462 -69.91043 38195 ft 481 kts 226°
2026-04-26 16:15 45.51281 -70.00989 38194 ft 482 kts 226°
2026-04-26 16:15 45.46467 -70.07638 38190 ft 482 kts 226°
2026-04-26 16:16 45.39241 -70.17584 38191 ft 482 kts 226°
2026-04-26 16:16 45.34417 -70.24205 38187 ft 482 kts 226°
2026-04-26 16:17 45.29581 -70.30825 38191 ft 482 kts 226°
2026-04-26 16:17 45.24748 -70.37424 38189 ft 482 kts 226°
2026-04-26 16:18 45.17494 -70.47300 38188 ft 482 kts 226°
2026-04-26 16:19 45.10222 -70.57161 38184 ft 482 kts 226°
2026-04-26 16:20 45.02957 -70.66977 38186 ft 482 kts 226°
2026-04-26 16:20 44.96501 -70.75671 38189 ft 481 kts 226°
2026-04-26 16:21 44.91649 -70.82185 38184 ft 481 kts 226°
2026-04-26 16:21 44.86794 -70.88689 38199 ft 481 kts 226°
2026-04-26 16:22 44.81936 -70.95180 38192 ft 481 kts 226°
2026-04-26 16:22 44.77080 -71.01651 38186 ft 481 kts 226°
2026-04-26 16:23 44.72251 -71.08072 38176 ft 481 kts 226°
2026-04-26 16:23 44.67386 -71.14526 38173 ft 480 kts 226°
2026-04-26 16:24 44.62523 -71.20960 38176 ft 480 kts 227°
2026-04-26 16:24 44.57656 -71.27385 38172 ft 480 kts 226°
2026-04-26 16:25 44.52818 -71.33755 38173 ft 480 kts 227°
2026-04-26 16:25 44.47947 -71.40153 38180 ft 479 kts 227°
2026-04-26 16:26 44.43072 -71.46544 38167 ft 480 kts 227°
2026-04-26 16:26 44.38198 -71.52917 38169 ft 479 kts 227°
2026-04-26 16:27 44.33322 -71.59277 38187 ft 479 kts 227°
2026-04-26 16:27 44.28482 -71.65578 38170 ft 478 kts 227°
2026-04-26 16:28 44.23616 -71.71897 38167 ft 478 kts 227°
2026-04-26 16:28 44.19178 -71.78693 38172 ft 471 kts 237°
2026-04-26 16:29 44.17261 -71.82333 38157 ft 459 kts 238°
2026-04-26 16:29 44.15404 -71.85890 38170 ft 451 kts 238°
2026-04-26 16:29 44.11725 -71.92930 38168 ft 448 kts 238°
2026-04-26 16:30 44.09877 -71.96442 37981 ft 452 kts 237°
2026-04-26 16:30 44.08013 -71.99969 37456 ft 453 kts 237°
2026-04-26 16:30 44.06145 -72.03483 36993 ft 448 kts 237°
2026-04-26 16:30 44.04306 -72.06930 36659 ft 441 kts 237°
2026-04-26 16:31 44.02489 -72.10329 36390 ft 436 kts 237°
2026-04-26 16:31 44.00657 -72.13764 36136 ft 450 kts 238°
2026-04-26 16:31 43.98768 -72.17308 35861 ft 462 kts 237°
2026-04-26 16:31 43.96854 -72.20888 35546 ft 462 kts 237°
2026-04-26 16:32 43.94934 -72.24469 35260 ft 461 kts 237°
2026-04-26 16:32 43.93665 -72.26829 35076 ft 460 kts 237°
2026-04-26 16:32 43.91117 -72.31564 34685 ft 457 kts 237°
2026-04-26 16:32 43.89218 -72.35089 34401 ft 454 kts 238°
2026-04-26 16:33 43.87331 -72.38589 34108 ft 451 kts 238°
2026-04-26 16:33 43.85482 -72.42015 33779 ft 448 kts 238°
2026-04-26 16:33 43.83621 -72.45462 33438 ft 445 kts 238°
2026-04-26 16:33 43.81916 -72.48616 33183 ft 442 kts 238°
2026-04-26 16:34 43.80078 -72.52012 32883 ft 439 kts 238°
2026-04-26 16:34 43.78256 -72.55376 32589 ft 435 kts 238°
2026-04-26 16:34 43.76442 -72.58721 32296 ft 432 kts 238°
2026-04-26 16:34 43.74643 -72.62034 32013 ft 430 kts 238°
2026-04-26 16:35 43.72850 -72.65333 31741 ft 427 kts 238°
2026-04-26 16:35 43.71069 -72.68607 31455 ft 425 kts 238°
2026-04-26 16:35 43.69291 -72.71871 31183 ft 423 kts 238°
2026-04-26 16:35 43.67524 -72.75112 30892 ft 422 kts 238°
2026-04-26 16:36 43.65780 -72.78306 30641 ft 420 kts 238°
2026-04-26 16:36 43.64000 -72.81561 30364 ft 419 kts 238°
2026-04-26 16:36 43.62267 -72.84729 30083 ft 418 kts 238°
2026-04-26 16:36 43.60520 -72.87919 29776 ft 416 kts 238°
2026-04-26 16:37 43.58775 -72.91103 29464 ft 415 kts 238°
2026-04-26 16:37 43.57036 -72.94265 29146 ft 413 kts 238°
2026-04-26 16:37 43.55302 -72.97419 28852 ft 412 kts 238°
2026-04-26 16:37 43.53574 -73.00562 28539 ft 410 kts 238°
2026-04-26 16:38 43.51851 -73.03692 28248 ft 408 kts 238°
2026-04-26 16:38 43.50146 -73.06786 27962 ft 407 kts 238°
2026-04-26 16:38 43.48431 -73.09893 27670 ft 405 kts 238°
2026-04-26 16:38 43.46727 -73.12975 27386 ft 403 kts 238°
2026-04-26 16:39 43.45030 -73.16044 27072 ft 401 kts 238°
2026-04-26 16:39 43.43345 -73.19089 26788 ft 399 kts 238°
2026-04-26 16:39 43.41665 -73.22119 26512 ft 397 kts 238°
2026-04-26 16:39 43.39991 -73.25135 26240 ft 396 kts 238°
2026-04-26 16:40 43.38323 -73.28139 25974 ft 394 kts 238°
2026-04-26 16:40 43.36666 -73.31119 25718 ft 392 kts 238°
2026-04-26 16:40 43.35035 -73.34051 25482 ft 390 kts 238°
2026-04-26 16:40 43.33369 -73.37041 25236 ft 388 kts 238°
2026-04-26 16:41 43.31756 -73.39934 24990 ft 386 kts 238°
2026-04-26 16:41 43.30124 -73.42857 24743 ft 385 kts 238°
2026-04-26 16:41 43.28497 -73.45771 24534 ft 384 kts 238°
2026-04-26 16:41 43.26881 -73.48664 24301 ft 383 kts 238°
2026-04-26 16:42 43.25257 -73.51569 24057 ft 382 kts 238°
2026-04-26 16:42 43.23645 -73.54446 23841 ft 381 kts 238°
2026-04-26 16:42 43.22031 -73.57323 23567 ft 380 kts 238°
2026-04-26 16:42 43.20323 -73.60077 23261 ft 382 kts 227°
2026-04-26 16:43 43.18082 -73.62109 22982 ft 394 kts 209°
2026-04-26 16:43 43.15477 -73.63334 22743 ft 395 kts 202°
2026-04-26 16:43 43.12840 -73.64413 22490 ft 396 kts 202°
2026-04-26 16:43 43.10192 -73.65477 22224 ft 397 kts 202°
2026-04-26 16:44 43.07545 -73.66549 21969 ft 397 kts 202°
2026-04-26 16:44 43.04903 -73.67637 21728 ft 396 kts 202°
2026-04-26 16:44 43.02302 -73.68721 21471 ft 395 kts 202°
2026-04-26 16:44 42.99678 -73.69822 21214 ft 394 kts 202°
2026-04-26 16:45 42.97062 -73.70924 20954 ft 392 kts 202°
2026-04-26 16:45 42.94470 -73.72016 20701 ft 389 kts 202°
2026-04-26 16:45 42.91899 -73.73099 20448 ft 386 kts 202°
2026-04-26 16:45 42.89342 -73.74175 20204 ft 382 kts 202°
2026-04-26 16:46 42.86812 -73.75239 19944 ft 379 kts 202°
2026-04-26 16:46 42.84301 -73.76296 19703 ft 376 kts 202°
2026-04-26 16:46 42.81806 -73.77346 19491 ft 373 kts 202°
2026-04-26 16:46 42.79333 -73.78385 19276 ft 370 kts 202°
2026-04-26 16:47 42.76883 -73.79413 19065 ft 367 kts 202°
2026-04-26 16:47 42.74444 -73.80436 18852 ft 365 kts 202°
2026-04-26 16:47 42.72036 -73.81489 18645 ft 363 kts 203°
2026-04-26 16:47 42.69641 -73.82567 18424 ft 362 kts 204°
2026-04-26 16:48 42.67254 -73.83649 18176 ft 361 kts 204°
2026-04-26 16:48 42.64895 -73.84714 17931 ft 354 kts 203°
2026-04-26 16:48 42.62615 -73.85738 17673 ft 346 kts 203°
2026-04-26 16:48 42.60349 -73.86757 17423 ft 339 kts 203°
2026-04-26 16:49 42.58135 -73.87748 17197 ft 332 kts 203°
2026-04-26 16:49 42.55965 -73.88720 16982 ft 325 kts 203°
2026-04-26 16:49 42.53827 -73.89678 16774 ft 322 kts 203°
2026-04-26 16:49 42.51714 -73.90621 16606 ft 319 kts 203°
2026-04-26 16:50 42.49604 -73.91567 16421 ft 321 kts 203°
2026-04-26 16:50 42.47449 -73.92538 16272 ft 333 kts 203°
2026-04-26 16:50 42.45236 -73.93528 16111 ft 336 kts 202°
2026-04-26 16:50 42.43016 -73.94517 15936 ft 337 kts 202°
2026-04-26 16:51 42.40795 -73.95503 15765 ft 335 kts 202°
2026-04-26 16:51 42.38579 -73.96487 15585 ft 334 kts 202°
2026-04-26 16:51 42.36374 -73.97464 15414 ft 333 kts 202°
2026-04-26 16:51 42.34178 -73.98437 15241 ft 331 kts 202°
2026-04-26 16:52 42.31992 -73.99408 15073 ft 330 kts 202°
2026-04-26 16:52 42.30547 -74.00050 14939 ft 330 kts 202°
2026-04-26 16:52 42.27627 -74.01347 14672 ft 329 kts 202°
2026-04-26 16:52 42.25455 -74.02306 14484 ft 328 kts 202°
2026-04-26 16:53 42.23290 -74.03263 14292 ft 327 kts 202°
2026-04-26 16:53 42.21136 -74.04215 14094 ft 325 kts 202°
2026-04-26 16:53 42.18988 -74.05164 13905 ft 323 kts 202°
2026-04-26 16:53 42.16881 -74.06096 13704 ft 322 kts 201°
2026-04-26 16:54 42.14751 -74.07037 13476 ft 321 kts 201°
2026-04-26 16:54 42.12634 -74.07972 13267 ft 319 kts 201°
2026-04-26 16:54 42.10528 -74.08899 13052 ft 317 kts 201°
2026-04-26 16:54 42.08436 -74.09821 12846 ft 316 kts 201°
2026-04-26 16:55 42.06348 -74.10740 12607 ft 314 kts 201°
2026-04-26 16:55 42.04276 -74.11651 12424 ft 312 kts 201°
2026-04-26 16:55 42.02212 -74.12556 12229 ft 312 kts 201°
2026-04-26 16:55 42.00155 -74.13459 12007 ft 311 kts 201°
2026-04-26 16:56 41.96046 -74.15259 11612 ft 310 kts 200°
2026-04-26 16:56 41.94000 -74.16155 11430 ft 309 kts 200°
2026-04-26 16:56 41.91974 -74.17043 11222 ft 309 kts 200°
2026-04-26 16:57 41.89929 -74.17937 11020 ft 309 kts 200°
2026-04-26 16:57 41.87887 -74.18829 10832 ft 309 kts 200°
2026-04-26 16:57 41.83800 -74.20613 10454 ft 308 kts 200°
2026-04-26 16:58 41.81767 -74.21501 10307 ft 307 kts 200°
2026-04-26 16:58 41.80391 -74.22101 10258 ft 308 kts 200°
2026-04-26 16:58 41.75642 -74.24170 9739 ft 304 kts 200°
2026-04-26 16:59 41.73648 -74.25038 9539 ft 299 kts 200°
2026-04-26 16:59 41.69718 -74.26748 9181 ft 295 kts 200°
2026-04-26 17:00 41.65833 -74.28434 8812 ft 292 kts 200°
2026-04-26 17:00 41.62021 -74.30085 8442 ft 282 kts 200°
2026-04-26 17:00 41.60179 -74.30886 8264 ft 275 kts 200°
2026-04-26 17:01 41.58384 -74.31663 8102 ft 269 kts 200°
2026-04-26 17:01 41.56599 -74.32436 7968 ft 269 kts 200°
2026-04-26 17:01 41.54830 -74.33201 7844 ft 265 kts 200°
2026-04-26 17:01 41.53085 -74.33956 7760 ft 263 kts 200°
2026-04-26 17:02 41.51328 -74.34718 7698 ft 268 kts 200°
2026-04-26 17:02 41.49561 -74.35477 7597 ft 265 kts 200°
2026-04-26 17:02 41.47823 -74.36226 7493 ft 261 kts 200°
2026-04-26 17:02 41.46114 -74.36964 7403 ft 262 kts 200°
2026-04-26 17:03 41.44368 -74.37716 7316 ft 263 kts 200°
2026-04-26 17:03 41.42634 -74.38464 7197 ft 261 kts 200°
2026-04-26 17:03 41.40904 -74.39209 7107 ft 261 kts 200°
2026-04-26 17:03 41.39174 -74.39956 7052 ft 261 kts 200°
2026-04-26 17:04 41.37456 -74.40695 6999 ft 258 kts 200°
2026-04-26 17:04 41.35749 -74.41428 6994 ft 259 kts 200°
2026-04-26 17:04 41.34023 -74.42171 6988 ft 259 kts 200°
2026-04-26 17:04 41.32325 -74.42898 6979 ft 255 kts 200°
2026-04-26 17:05 41.30628 -74.43627 6989 ft 258 kts 200°
2026-04-26 17:05 41.28905 -74.44367 6995 ft 261 kts 200°
2026-04-26 17:05 41.27194 -74.45102 6985 ft 254 kts 200°
2026-04-26 17:05 41.25520 -74.45817 6988 ft 254 kts 199°
2026-04-26 17:06 41.23815 -74.46546 7003 ft 260 kts 200°
2026-04-26 17:06 41.22106 -74.47277 6991 ft 256 kts 200°
2026-04-26 17:06 41.20408 -74.48002 6996 ft 257 kts 200°
2026-04-26 17:06 41.18686 -74.48739 6993 ft 260 kts 200°
2026-04-26 17:07 41.16973 -74.49475 7001 ft 260 kts 200°
2026-04-26 17:07 41.15255 -74.50208 6990 ft 258 kts 200°
2026-04-26 17:07 41.13549 -74.50933 6978 ft 257 kts 200°
2026-04-26 17:07 41.11839 -74.51663 6981 ft 259 kts 200°
2026-04-26 17:08 41.10138 -74.52388 6986 ft 259 kts 200°
2026-04-26 17:08 41.08422 -74.53119 6985 ft 259 kts 200°
2026-04-26 17:08 41.06698 -74.53830 6888 ft 259 kts 196°
2026-04-26 17:08 41.04917 -74.54167 6727 ft 258 kts 187°
2026-04-26 17:09 41.03122 -74.54309 6610 ft 259 kts 186°
2026-04-26 17:09 41.02514 -74.54349 6569 ft 260 kts 185°
2026-04-26 17:09 40.99523 -74.54561 6360 ft 258 kts 186°
2026-04-26 17:09 40.98310 -74.54657 6296 ft 258 kts 186°
2026-04-26 17:10 40.96544 -74.54801 6173 ft 258 kts 186°
2026-04-26 17:10 40.94761 -74.54953 6024 ft 257 kts 186°
2026-04-26 17:10 40.92977 -74.55111 5900 ft 255 kts 186°
2026-04-26 17:10 40.91210 -74.55270 5778 ft 254 kts 186°
2026-04-26 17:11 40.89446 -74.55430 5656 ft 254 kts 186°
2026-04-26 17:11 40.87691 -74.55591 5505 ft 252 kts 186°
2026-04-26 17:11 40.85940 -74.55752 5288 ft 251 kts 185°
2026-04-26 17:11 40.84212 -74.55910 5083 ft 247 kts 185°
2026-04-26 17:12 40.80850 -74.55970 4731 ft 235 kts 178°
2026-04-26 17:12 40.79249 -74.55867 4605 ft 227 kts 178°
2026-04-26 17:13 40.76224 -74.55485 4284 ft 208 kts 162°
2026-04-26 17:13 40.74913 -74.54791 4154 ft 199 kts 156°
2026-04-26 17:13 40.72390 -74.53327 4037 ft 199 kts 156°
2026-04-26 17:14 40.71130 -74.52608 3882 ft 195 kts 156°
2026-04-26 17:14 40.68682 -74.51228 3676 ft 188 kts 155°
2026-04-26 17:14 40.67488 -74.50563 3544 ft 189 kts 155°
2026-04-26 17:15 40.65058 -74.49220 3304 ft 191 kts 155°
2026-04-26 17:15 40.63827 -74.48542 3132 ft 191 kts 155°
2026-04-26 17:15 40.62595 -74.47865 3024 ft 191 kts 155°
2026-04-26 17:16 40.61358 -74.47187 2910 ft 192 kts 155°
2026-04-26 17:16 40.60147 -74.46527 2770 ft 186 kts 155°
2026-04-26 17:16 40.58982 -74.45891 2656 ft 177 kts 155°
2026-04-26 17:16 40.57843 -74.45269 2599 ft 177 kts 155°
2026-04-26 17:17 40.56697 -74.44646 2513 ft 180 kts 154°
2026-04-26 17:17 40.55541 -74.44018 2424 ft 178 kts 154°
2026-04-26 17:17 40.54394 -74.43394 2340 ft 178 kts 155°
2026-04-26 17:17 40.53241 -74.42767 2272 ft 179 kts 154°
2026-04-26 17:18 40.52089 -74.42141 2254 ft 178 kts 154°
2026-04-26 17:18 40.50986 -74.41430 2208 ft 177 kts 140°
2026-04-26 17:18 40.50194 -74.40225 2241 ft 176 kts 122°
2026-04-26 17:18 40.49601 -74.38796 2217 ft 175 kts 127°
2026-04-26 17:19 40.48585 -74.36106 2119 ft 183 kts 75°
2026-04-26 17:19 40.49256 -74.34673 2151 ft 184 kts 62°
2026-04-26 17:19 40.49852 -74.33195 2117 ft 183 kts 69°
2026-04-26 17:20 40.50346 -74.31657 2093 ft 182 kts 72°
2026-04-26 17:20 40.50637 -74.30645 2052 ft 175 kts 74°
2026-04-26 17:20 40.51228 -74.28735 1976 ft 167 kts 57°
2026-04-26 17:20 40.52157 -74.27804 1961 ft 171 kts 38°
2026-04-26 17:21 40.53175 -74.26954 1975 ft 174 kts 38°
2026-04-26 17:21 40.54203 -74.26118 1857 ft 172 kts 35°
2026-04-26 17:21 40.55256 -74.25382 1779 ft 173 kts 32°
2026-04-26 17:21 40.56324 -74.24689 1726 ft 171 kts 32°
2026-04-26 17:22 40.57351 -74.24038 1688 ft 154 kts 32°
2026-04-26 17:22 40.58306 -74.23429 1726 ft 157 kts 32°
2026-04-26 17:22 40.59265 -74.22823 1695 ft 145 kts 32°
2026-04-26 17:22 40.60142 -74.22267 1667 ft 135 kts 33°
2026-04-26 17:23 40.60993 -74.21724 1701 ft 138 kts 32°
2026-04-26 17:23 40.61881 -74.21160 1478 ft 140 kts 32°
2026-04-26 17:23 40.62768 -74.20597 1275 ft 140 kts 32°
2026-04-26 17:23 40.63619 -74.20057 1073 ft 134 kts 31°
2026-04-26 17:24 40.64457 -74.19526 869 ft 132 kts 32°
2026-04-26 17:24 40.65289 -74.18995 668 ft 135 kts 31°
2026-04-26 17:24 40.66126 -74.18466 484 ft 134 kts 28°
2026-04-26 17:24 40.66955 -74.17942 268 ft 130 kts 30°
2026-04-26 17:25 40.67753 -74.17434 103 ft 129 kts 29°
2026-04-26 17:25 40.68558 -74.16917 28 ft 121 kts 28°
2026-04-26 17:25 40.69191 -74.16513 29 ft 77 kts 24°
2026-04-26 17:25 40.69559 -74.16281 27 ft 46 kts 25°
2026-04-26 17:26 40.69724 -74.16190 29 ft 20 kts
2026-04-26 17:26 40.69824 -74.16277 32 ft 12 kts 300°
2026-04-26 17:26 40.69861 -74.16378 30 ft 13 kts 296°
2026-04-26 17:26 40.69899 -74.16496 29 ft 15 kts 285°
2026-04-26 17:27 40.69911 -74.16630 26 ft 15 kts 275°
2026-04-26 17:27 40.69938 -74.16742 27 ft 13 kts 323°
2026-04-26 17:27 40.70007 -74.16781 27 ft 10 kts 309°
2026-04-26 17:27 40.70012 -74.16873 27 ft 11 kts 270°
2026-04-26 17:28 40.70016 -74.16973 27 ft 11 kts 275°
2026-04-26 17:28 40.70024 -74.17083 27 ft 16 kts 275°
2026-04-26 17:28 40.70039 -74.17296 27 ft 27 kts 275°
2026-04-26 17:28 40.70055 -74.17544 27 ft 27 kts 275°
2026-04-26 17:29 40.70039 -74.17658 27 ft 9 kts 219°
2026-04-26 17:29 40.70006 -74.17693 27 ft 9 kts 231°
2026-04-26 17:29 40.69962 -74.17789 27 ft 9 kts 220°
2026-04-26 17:29 40.69932 -74.17819 27 ft 0 kts 217°